الصفحة الرئيسية
METAR-TAF:

METAR-TAF

مطار :

إري, كولورادو, الولايات المتحدة

دائرة عرض: 40-00-37N, خط طول: 105-02-53W, ارتفاع: 1564 متر

مراقبة الطقس الحالي

تاريخ ووقت الإصدار 18 دقيقة قبل الساعة 22:12UTC
ريح 12 عقدة من الشرق/الجنوب الشرقي تتزايد حتى 15 عقدة
درجة الحرارة 31°درجة مئوية
الرطوبة 6%
ضغط 1020 hPa
الرؤية: 16.1 كم
سماء صافية

METAR: KEIK 222212Z AUTO 11012G15KT 10SM CLR 31/M11 A3011 RMK AO2 T03071111

زمن: 16:30 (22:30 UTC)


TAF: مفقودة

أرصاد الطقس والتوقعات من أكثر من 4000 مطار (تقارير الطقس للمطار METAR والتنبؤ بالطقس بالمطارTAF).

المحطات المتاحة هي النقط الصفراء والحمراء على الخريطة.

حرك المؤشر فوق النقطة لمعرفة اسم المحطة.

ثم انقر لمعرفة أرصاد وتوقعات الطقس.

لتغيير الخارطة: اضغط على الأزرار الخضراء مع رمز الصليب الأسود للتكبير. على الزر الأخضر مع شرطة للتصغير، أو على الأسهم الخضراء للخرائط المجاورة.


METAR-TAF: